Back to catalog

COSMOS 1375 DEB

AliveLEO
NORAD 17805·DEBRIS·🇷🇺 Russia

Launched Jun 6, 1982 from Plesetsk Cosmodrome

Loading…

Next Passes (next 24 hours)

TLE

FreshSource: Space-Track

Epoch: Sep 13, 2026, 21:57 UTC

1 17805U 82055AX  26256.91523963  .00000961  00000-0  64945-3 0  9997
2 17805  65.8192  67.2629 0019656 216.7703 294.3890 14.04967954 71191

Track COSMOS 1375 DEB in real time with AllMySat

Download on the App Store